Weather in Bangor

United Kingdom     54°39′38″N   5°40′04″W
temp.,
°C
wind,
m/s
gust,
m/s
humid.,
%
clouds,
%
prec.,
mm/h
press.,
hPa
HPBL,
m
25 february, thu
thu2500:00+6sw7148698 0.1 1015599
03:00+5wsw9158615 0.0 1016727
06:00+5wsw713887 0.0 1018632
09:00+5wsw612870 0.0 1021633
12:00+8wsw69750 0.0 1024802
15:00+8w687028 0.1 1026710
18:00+6wsw488014 0.2 1028226
21:00+4wsw59820 0.0 1031258
26 february, fri
fri2600:00+4sw488526 0.0 1032231
03:00+3sw478854 0.0 1032189
06:00+3sw588941 0.0 1033224
09:00+5sw510872 0.0 1033304
12:00+9ssw47771 0.0 1034434
15:00+10ssw58750 0.0 1033574
18:00+8s5108618 0.1 1033334
21:00+7ssw5128699 0.0 1034414
27 february, sat
sat2700:00+6ssw5118979 0.0 1034335
03:00+6sw6118868 0.0 1035444
06:00+5wsw489277 0.0 1036204
09:00+6w339237 0.0 103893
12:00+9n117918 0.0 1039328
15:00+9e22800 0.0 1039225
18:00+6sse11910 0.0 103922
21:00+6sw11890 0.0 104022
28 february, sun
sun2800:00+5ssw12870 0.0 104023
03:00+5ssw22850 0.0 103847
06:00+4ssw11850 0.0 103848
09:00+5ssw12880 0.0 103871
12:00+8sse349116 0.0 1037309
15:00+8sse448599 0.0 1035340
18:00+7sse238984 0.0 1034107
21:00+5se119326 0.0 103527
1 march, mon
mon100:00+5e229313 0.0 103545
03:00+5se359315 0.0 1033144
06:00+5se249310 0.0 1032151
09:00+6se58840 0.0 1032508
12:00+7ese67840 0.0 1031541
15:00+7ese57780 0.0 1029548
18:00+5ese35860 0.0 1027189
21:00+5ese36860 0.0 1027153